Flag for Switzerland Weather past 2 weeks in Olten, Solothurn, Switzerland

Now
68 °F

Mild.


Feels Like: 68 °F
Forecast: 46 / 64 °F
Wind: 2 mph from West

Location: Wynau

Current Time: Oct 20, 2014 at 4:12:24 PM

Latest Report: Oct 20, 2014 at 3:00 PM


Visibility: N/A

Pressure: 30.07 "Hg

Humidity: 63%

Dew point: 55 °F

Location of OltenLocation

Historic Weather in Olten — Graph

°F

Olten temperature yesterday

Maximum temperature yesterday: 70 °F (at 4:00 PM)
Minimum temperature yesterday: 49 °F (at 6:00 AM)
Average temperature yesterday: 57 °F

Past Weeks' High & Low Weather Summary

 TemperatureHumidityPressure
High73 °F (Oct 9, 4:00 PM)100% (Oct 6, 4:00 AM)30.28 "Hg (Oct 6, 4:00 AM)
Low48 °F (Oct 18, 2:00 AM)51% (Oct 9, 4:00 PM)29.76 "Hg (Oct 15, 5:00 PM)
Average57 °F91%29.95 "Hg
* Reported Oct 5 2:00 PM — Oct 20 2:00 PM, Olten, Weather by CustomWeather, © 2014

Note: Actual official high and low records may vary slightly from our data, if they occured in-between our weather recording intervals... More about our weather records

Advertising

Olten weather history for previous 24 hours

 ConditionsComfort  
Time TempWeatherWind HumidityBarometerVisibility
2:00 PM
Oct 20
69 °FMild.1 mph64%30.09 "HgN/A
1:00 PM66 °FMild.5 mph66%30.12 "HgN/A
12:00 PM65 °FMild.1 mph75%30.15 "HgN/A
11:00 AM58 °FCool.1 mph87%30.18 "HgN/A
10:00 AM53 °FCool.1 mph94%30.20 "HgN/A
9:00 AM49 °FCool.1 mph100%30.22 "HgN/A
8:00 AM48 °FCool.1 mph100%30.21 "HgN/A
7:00 AM48 °FCool.1 mph100%30.22 "HgN/A
5:00 AM50 °FCool.No wind100%30.23 "HgN/A
4:00 AM51 °FCool.1 mph95%30.24 "HgN/A
3:00 AM51 °FCool.No wind100%30.25 "HgN/A
2:00 AM51 °FCool.No wind100%30.25 "HgN/A
1:00 AM52 °FCool.2 mph100%30.24 "HgN/A
12:00 AM52 °FCool.No wind100%30.24 "HgN/A
11:00 PM
Oct 19
54 °FCool.1 mph99%30.24 "HgN/A
10:00 PM55 °FCool.1 mph98%30.23 "HgN/A
9:00 PM57 °FCool.No wind96%30.22 "HgN/A
8:00 PM59 °FCool.1 mph92%30.21 "HgN/A
7:00 PM62 °FCool.2 mph78%30.19 "HgN/A
6:00 PM66 °FMild.5 mph69%30.16 "HgN/A
5:00 PM69 °FMild.7 mph62%30.15 "HgN/A
4:00 PM70 °FMild.9 mph60%30.16 "HgN/A
Weather by CustomWeather, © 2014

See weather overviewHow to use our weather pages